GFSNE_prec_sndepth_156.txt.gz
Snowfall_Accumulation
0.0 0.0 0.0 0.0 0.0 0.0 0.0 0.0 0.2 0.1 0.0 0.0 0.0 0.0 0.0 0.0 0.0 0.0 0.0 nan nan nan nan nan nan nan nan nan nan nan nan nan nan nan nan nan nan nan
0.0 0.0 0.0 0.0 0.0 0.0 0.0 0.0 0.0 0.1 0.3 0.0 0.0 0.0 0.0 0.0 0.0 0.0 0.0 nan nan nan nan nan nan nan nan nan nan nan nan nan nan nan nan nan nan nan
0.0 0.0 0.0 0.0 0.0 0.0 0.0 0.0 0.0 0.0 0.1 0.0 0.0 0.0 0.0 0.0 0.0 0.0 0.0 0.0 0.0 nan nan nan nan nan nan nan nan nan nan nan nan nan nan nan nan nan
0.0 0.0 0.0 0.0 0.0 0.0 0.0 0.0 0.0 0.0 0.1 0.1 0.0 0.0 0.0 0.0 0.0 0.0 0.0 0.0 0.0 nan nan nan nan nan nan nan nan nan nan nan nan nan nan nan nan nan
0.0 0.0 0.0 0.0 0.0 0.0 0.0 0.0 0.0 0.0 0.0 0.2 0.0 0.0 0.0 0.0 0.0 0.0 0.0 0.0 0.0 nan nan nan nan nan nan nan nan nan nan nan nan nan nan nan nan nan
0.0 0.0 0.1 0.2 0.4 0.2 0.0 0.0 0.0 0.0 0.0 0.0 0.0 0.0 0.0 0.0 0.0 0.0 0.0 0.0 0.0 0.1 nan nan nan nan nan nan nan nan nan nan nan nan nan nan nan nan
0.0 0.0 0.2 nan nan nan 0.6 0.3 0.1 0.1 0.1 0.1 0.1 0.1 0.0 0.0 0.1 0.1 0.1 0.1 0.4 0.4 0.4 0.2 0.1 0.1 0.1 nan nan nan nan nan nan nan nan nan nan nan
0.3 0.1 0.2 0.3 0.3 nan nan nan nan 1.8 0.5 0.7 0.6 0.6 0.3 0.4 0.2 0.5 0.3 0.2 0.3 0.1 0.7 0.8 0.4 0.3 0.2 0.2 nan nan nan nan nan nan nan nan nan nan
1.7 1.2 1.0 1.5 nan 0.8 nan nan nan nan nan 1.2 1.2 2.2 1.0 1.5 0.5 0.2 0.3 1.0 0.9 1.1 0.9 2.1 1.1 2.0 0.7 0.2 nan nan nan nan nan nan nan nan nan nan
6.1 5.6 4.4 3.3 3.8 2.6 2.7 3.3 4.6 4.1 5.0 2.9 2.9 4.3 3.0 1.3 0.9 0.8 0.9 0.9 1.5 2.5 1.4 4.9 3.5 5.1 2.0 0.7 nan nan nan nan nan nan nan nan nan nan
7.2 7.0 7.1 6.8 nan nan 5.4 6.6 8.5 11.1 nan nan nan nan nan nan nan 0.3 0.8 0.7 3.7 6.8 6.0 7.7 8.0 8.2 6.4 4.5 1.9 nan nan nan nan nan nan nan nan nan
7.6 6.4 nan 8.2 nan nan 6.3 8.0 11.7 18.1 13.4 10.2 8.9 8.0 nan nan nan 4.6 2.3 2.6 5.0 7.0 6.2 8.1 6.3 6.6 8.3 4.3 4.2 3.3 2.0 nan nan nan nan nan nan 0.8
11.5 11.2 10.5 nan nan nan nan 8.0 15.6 13.5 10.0 13.0 12.1 11.8 10.3 9.8 10.5 9.8 8.8 7.8 6.5 9.3 9.5 6.4 7.1 5.6 5.8 7.1 5.0 5.1 3.9 3.7 2.2 1.6 nan nan nan 0.8
12.0 12.5 16.2 nan nan nan 7.5 nan nan 4.7 12.2 12.1 10.8 11.1 10.3 10.4 11.7 10.1 10.2 8.7 9.0 10.5 7.5 3.6 7.9 5.9 6.6 7.5 8.0 6.2 5.3 4.5 3.5 3.2 2.5 nan nan nan
13.5 17.2 nan nan nan 1.8 nan nan 4.0 11.6 13.7 16.1 16.6 16.1 13.1 9.5 6.2 5.7 4.3 4.3 4.7 5.1 5.1 5.3 6.7 6.5 6.2 7.4 7.2 5.9 5.6 4.8 4.1 3.6 3.0 3.0 3.1 3.1
2.7 7.4 4.0 6.5 3.5 4.7 4.8 5.9 6.1 7.4 8.6 9.7 9.0 7.0 5.6 6.0 6.9 5.5 6.2 6.3 6.6 6.5 4.4 5.2 5.6 5.1 7.9 5.7 4.7 5.8 4.1 4.4 3.7 4.0 4.0 3.1 2.3 2.1
4.7 6.5 6.4 5.9 6.0 4.9 4.5 4.3 3.5 3.2 4.7 5.1 4.9 3.8 2.8 1.9 2.1 1.4 1.8 2.4 5.5 5.6 6.5 3.4 2.9 4.0 6.0 6.1 8.7 6.2 6.4 5.7 4.5 4.2 3.2 3.9 3.7 2.9
3.6 5.4 9.2 8.7 5.3 3.2 3.6 3.2 2.5 2.0 1.7 1.7 2.5 1.6 1.8 2.0 1.5 1.2 1.1 1.6 2.3 1.8 1.7 1.8 2.3 2.7 2.7 3.3 4.5 6.1 5.1 4.7 4.9 4.2 4.0 6.4 5.6 3.8
4.8 4.0 8.6 9.0 3.8 1.4 1.4 1.4 2.7 1.7 0.1 1.4 2.4 3.6 3.3 1.9 2.0 1.3 1.4 1.1 1.1 0.5 0.3 0.4 0.8 2.0 6.4 10.0 2.4 nan 4.4 3.8 4.0 4.0 2.6 4.2 6.2 5.0
1.8 3.2 5.3 4.6 1.7 1.4 1.4 1.6 1.9 3.1 3.4 2.5 4.0 5.9 6.9 4.1 3.7 2.4 1.8 3.0 1.3 0.5 0.4 0.2 0.3 0.5 2.7 7.9 10.5 4.4 nan 3.6 3.3 3.8 3.5 3.0 3.7 nan
1.7 1.7 3.6 2.9 2.1 1.4 6.3 7.6 10.1 8.8 8.1 11.6 5.7 6.1 14.5 3.2 3.9 3.0 3.5 2.9 2.1 0.7 0.9 0.6 0.3 0.2 0.3 1.0 12.5 4.3 1.8 nan 0.7 1.6 1.9 3.3 3.3 2.6
4.1 2.7 2.5 2.5 4.2 3.9 9.4 14.7 12.9 12.2 8.8 5.9 12.5 17.9 15.7 6.4 6.3 5.2 6.0 5.8 1.9 1.8 0.9 0.5 0.2 0.2 0.4 1.1 1.8 5.8 1.7 1.0 nan nan nan nan 6.0 9.7
7.7 3.5 5.4 7.1 8.8 8.8 3.4 8.8 3.5 7.0 6.8 6.9 6.2 6.5 29.4 8.3 4.3 4.4 5.3 4.0 2.3 2.1 1.3 1.4 0.5 0.4 0.5 0.5 1.3 3.2 1.2 3.4 0.9 1.2 1.5 nan nan nan

GFSNE_prec_sndepth_159.txt.gz
Snowfall_Accumulation
0.0 0.0 0.0 0.0 0.0 0.0 0.0 0.0 0.1 0.1 0.0 0.0 0.0 0.0 0.0 0.0 0.0 0.0 0.0 nan nan nan nan nan nan nan nan nan nan nan nan nan nan nan nan nan nan nan
0.0 0.0 0.0 0.0 0.0 0.0 0.0 0.0 0.0 0.0 0.2 0.0 0.0 0.0 0.0 0.0 0.0 0.0 0.0 nan nan nan nan nan nan nan nan nan nan nan nan nan nan nan nan nan nan nan
0.0 0.0 0.0 0.0 0.0 0.0 0.0 0.0 0.0 0.0 0.0 0.0 0.0 0.0 0.0 0.0 0.0 0.0 0.0 0.0 0.0 nan nan nan nan nan nan nan nan nan nan nan nan nan nan nan nan nan
0.0 0.0 0.0 0.0 0.0 0.0 0.0 0.0 0.0 0.0 0.0 0.0 0.0 0.0 0.0 0.0 0.0 0.0 0.0 0.0 0.0 nan nan nan nan nan nan nan nan nan nan nan nan nan nan nan nan nan
0.0 0.0 0.0 0.0 0.0 0.0 0.0 0.0 0.0 0.0 0.0 0.1 0.0 0.0 0.0 0.0 0.0 0.0 0.0 0.0 0.0 nan nan nan nan nan nan nan nan nan nan nan nan nan nan nan nan nan
0.0 0.0 0.0 0.1 0.2 0.1 0.0 0.0 0.0 0.0 0.0 0.0 0.0 0.0 0.0 0.0 0.0 0.0 0.0 0.0 0.0 0.0 nan nan nan nan nan nan nan nan nan nan nan nan nan nan nan nan
0.0 0.0 0.1 nan nan nan 0.5 0.2 0.1 0.1 0.1 0.1 0.0 0.0 0.0 0.0 0.1 0.1 0.1 0.0 0.4 0.3 0.3 0.2 0.1 0.0 0.1 nan nan nan nan nan nan nan nan nan nan nan
0.2 0.1 0.1 0.2 0.2 nan nan nan nan 1.6 0.3 0.6 0.5 0.5 0.2 0.3 0.1 0.3 0.2 0.1 0.3 0.1 0.6 0.8 0.4 0.3 0.2 0.2 nan nan nan nan nan nan nan nan nan nan
1.1 0.7 0.5 1.0 nan 0.4 nan nan nan nan nan 0.9 1.0 2.1 0.8 1.4 0.4 0.1 0.2 0.8 0.8 1.0 0.7 2.1 1.0 2.0 0.7 0.2 nan nan nan nan nan nan nan nan nan nan
5.2 5.2 3.7 3.0 3.6 2.4 2.4 3.2 4.5 4.0 4.9 2.8 2.8 4.2 2.9 1.1 0.8 0.5 0.5 0.5 1.3 2.2 1.3 5.0 3.3 4.8 1.9 0.6 nan nan nan nan nan nan nan nan nan nan
6.4 6.6 6.9 6.7 nan nan 5.3 6.5 8.4 10.9 nan nan nan nan nan nan nan 0.2 0.7 0.6 3.7 6.7 5.9 7.9 7.8 7.8 5.8 4.1 1.7 nan nan nan nan nan nan nan nan nan
6.6 5.8 nan 8.1 nan nan 6.2 7.9 11.6 17.9 13.3 10.1 8.8 7.7 nan nan nan 4.4 2.2 2.6 4.9 6.9 6.1 8.2 6.2 6.5 8.3 3.6 3.7 2.9 1.7 nan nan nan nan nan nan 0.7
10.4 10.9 10.4 nan nan nan nan 7.9 15.4 13.4 9.8 12.9 12.0 11.7 10.2 9.7 10.3 9.7 8.7 7.7 6.4 9.2 9.4 6.4 7.0 5.4 5.6 6.9 4.5 4.8 3.6 3.4 1.9 1.4 nan nan nan 0.7
11.2 12.3 16.1 nan nan nan 7.5 nan nan 4.5 12.1 12.0 10.7 11.0 10.2 10.3 11.5 9.9 10.1 8.6 8.9 10.4 7.4 3.5 7.7 5.8 6.4 7.4 7.9 6.0 5.0 4.2 3.2 2.9 2.2 nan nan nan
13.3 17.0 nan nan nan 1.8 nan nan 4.0 11.4 13.5 15.9 16.4 15.9 12.9 9.3 6.1 5.6 4.1 4.0 4.6 5.0 4.9 5.2 6.6 6.4 6.1 7.2 7.0 5.7 5.4 4.6 3.9 3.4 2.6 2.6 2.7 2.7
2.7 7.2 4.0 6.4 3.5 4.7 4.7 5.7 6.0 7.2 8.5 9.5 8.8 6.8 5.4 5.8 6.7 5.3 6.0 5.9 6.3 6.1 4.3 5.1 5.5 5.0 7.7 5.6 4.5 5.6 4.0 4.2 3.5 3.9 3.8 2.7 1.9 1.8
4.7 6.3 5.9 5.1 5.2 4.3 4.1 4.2 3.4 3.1 4.6 5.0 4.8 3.7 2.7 1.8 2.0 1.2 1.7 2.2 5.3 5.4 6.3 3.0 2.5 3.4 5.8 5.9 8.5 6.0 6.2 5.5 4.3 4.1 3.0 3.8 3.4 2.6
3.3 4.8 8.4 7.7 4.6 2.7 3.0 2.8 2.3 1.8 1.5 1.6 2.4 1.6 1.7 1.9 1.4 1.1 1.0 1.4 2.1 1.6 1.5 1.7 2.1 2.4 2.2 3.1 4.3 5.9 4.9 4.6 4.7 4.1 3.7 6.2 5.4 3.6
4.4 3.6 8.5 8.2 3.3 1.2 1.2 1.2 2.5 1.7 0.1 1.3 2.3 3.5 3.2 1.8 1.9 1.2 1.3 1.0 1.0 0.5 0.3 0.4 0.7 1.9 6.3 9.8 2.2 nan 4.3 3.7 3.9 3.9 2.5 4.1 6.1 4.9
1.6 3.0 5.0 4.2 1.5 1.2 1.2 1.4 1.7 2.9 3.3 2.4 3.9 5.8 6.7 4.0 3.5 2.3 1.8 2.9 1.2 0.4 0.3 0.1 0.2 0.5 2.6 7.7 10.3 4.3 nan 3.4 3.2 3.7 3.3 2.8 3.6 nan
1.6 1.6 3.4 2.7 1.9 1.3 6.2 7.5 9.9 8.6 7.9 11.5 5.6 6.1 14.3 3.1 3.8 2.9 3.4 2.8 2.1 0.7 0.8 0.5 0.3 0.2 0.3 0.9 12.4 4.3 1.7 nan 0.6 1.5 1.8 3.2 3.2 2.5
3.9 2.6 2.4 2.3 4.1 3.8 9.2 14.1 12.2 11.4 8.1 5.5 12.4 17.8 15.5 6.2 6.1 5.1 5.9 5.7 1.8 1.7 0.9 0.4 0.2 0.2 0.4 1.0 1.7 5.8 1.7 1.0 nan nan nan nan 5.9 9.6
7.5 3.4 5.3 7.0 8.7 8.6 3.2 8.6 3.1 6.2 6.3 6.4 5.8 6.4 29.2 8.2 4.2 4.3 5.2 3.9 2.2 2.1 1.2 1.3 0.5 0.4 0.5 0.5 1.3 3.2 1.2 3.3 0.9 1.1 1.4 nan nan nan

GFSNE_prec_sndepth_162.txt.gz
Snowfall_Accumulation
0.0 0.0 0.0 0.0 0.0 0.0 0.0 0.0 0.1 0.0 0.0 0.0 0.0 0.0 0.0 0.0 0.0 0.0 0.0 nan nan nan nan nan nan nan nan nan nan nan nan nan nan nan nan nan nan nan
0.0 0.0 0.0 0.0 0.0 0.0 0.0 0.0 0.0 0.0 0.1 0.0 0.0 0.0 0.0 0.0 0.0 0.0 0.0 nan nan nan nan nan nan nan nan nan nan nan nan nan nan nan nan nan nan nan
0.0 0.0 0.0 0.0 0.0 0.0 0.0 0.0 0.0 0.0 0.0 0.0 0.0 0.0 0.0 0.0 0.0 0.0 0.0 0.0 0.0 nan nan nan nan nan nan nan nan nan nan nan nan nan nan nan nan nan
0.0 0.0 0.0 0.0 0.0 0.0 0.0 0.0 0.0 0.0 0.0 0.0 0.0 0.0 0.0 0.0 0.0 0.0 0.0 0.0 0.0 nan nan nan nan nan nan nan nan nan nan nan nan nan nan nan nan nan
0.0 0.0 0.0 0.0 0.0 0.0 0.0 0.0 0.0 0.0 0.0 0.1 0.0 0.0 0.0 0.0 0.0 0.0 0.0 0.0 0.0 nan nan nan nan nan nan nan nan nan nan nan nan nan nan nan nan nan
0.0 0.0 0.0 0.1 0.2 0.1 0.0 0.0 0.0 0.0 0.0 0.0 0.0 0.0 0.0 0.0 0.0 0.0 0.0 0.0 0.0 0.0 nan nan nan nan nan nan nan nan nan nan nan nan nan nan nan nan
0.0 0.0 0.1 nan nan nan 0.4 0.2 0.1 0.1 0.0 0.0 0.0 0.0 0.0 0.0 0.1 0.0 0.0 0.0 0.6 0.3 0.3 0.2 0.1 0.0 0.1 nan nan nan nan nan nan nan nan nan nan nan
0.1 0.1 0.1 0.1 0.1 nan nan nan nan 1.6 0.3 0.6 0.5 0.4 0.1 0.3 0.1 0.3 0.2 0.1 0.3 0.1 0.5 0.8 0.3 0.3 0.2 0.2 nan nan nan nan nan nan nan nan nan nan
1.0 0.6 0.4 0.9 nan 0.4 nan nan nan nan nan 0.9 1.0 2.1 0.8 1.4 0.4 0.1 0.2 0.8 0.8 1.0 0.7 2.3 0.9 2.1 0.7 0.1 nan nan nan nan nan nan nan nan nan nan
5.2 5.1 3.6 3.0 3.6 2.4 2.4 3.1 4.4 3.9 4.9 2.7 2.7 4.1 2.9 1.1 0.7 0.5 0.5 0.4 1.4 2.2 1.3 5.0 3.3 4.8 2.2 0.6 nan nan nan nan nan nan nan nan nan nan
6.4 6.6 6.9 6.6 nan nan 5.3 6.4 8.3 10.9 nan nan nan nan nan nan nan 0.2 0.7 0.6 3.7 6.7 5.9 8.0 7.8 7.8 5.8 4.1 1.6 nan nan nan nan nan nan nan nan nan
6.6 5.8 nan 8.1 nan nan 6.1 7.8 11.6 17.8 13.2 10.1 8.7 7.7 nan nan nan 4.4 2.2 2.5 4.9 6.8 6.1 8.3 6.2 6.5 8.2 3.5 3.6 2.9 1.7 nan nan nan nan nan nan 0.7
10.4 10.9 10.3 nan nan nan nan 7.9 15.4 13.4 9.8 12.9 11.9 11.7 10.2 9.7 10.3 9.6 8.7 7.7 6.4 9.2 9.4 6.4 7.0 5.4 5.6 6.9 4.5 4.8 3.6 3.4 1.9 1.4 nan nan nan 0.6
11.1 12.2 16.0 nan nan nan 7.4 nan nan 4.5 12.1 11.9 10.6 10.9 10.1 10.2 11.5 9.9 10.0 8.6 8.9 10.4 7.3 3.5 7.7 5.8 6.4 7.3 7.8 6.0 5.0 4.2 3.2 2.9 2.1 nan nan nan
13.2 17.0 nan nan nan 1.8 nan nan 4.0 11.4 13.5 15.9 16.4 15.9 12.9 9.3 6.1 5.5 4.0 3.9 4.6 4.9 4.9 5.2 6.5 6.3 6.1 7.2 7.0 5.7 5.4 4.5 3.9 3.4 2.6 2.6 2.7 2.7
2.7 7.2 4.0 6.4 3.5 4.7 4.6 5.7 6.0 7.2 8.4 9.4 8.8 6.8 5.3 5.8 6.7 5.2 6.0 5.9 6.3 6.1 4.3 5.1 5.5 5.0 7.7 5.5 4.5 5.6 4.0 4.2 3.5 3.9 3.7 2.7 1.9 1.8
4.6 6.2 5.9 5.1 5.1 4.3 4.0 4.2 3.4 3.0 4.6 4.9 4.7 3.7 2.7 1.8 1.9 1.2 1.6 2.1 5.3 5.4 6.3 3.0 2.5 3.4 5.8 5.9 8.5 6.0 6.2 5.4 4.3 4.1 3.0 3.8 3.4 2.6
3.3 4.8 8.4 7.7 4.5 2.6 3.0 2.7 2.2 1.8 1.5 1.6 2.4 1.6 1.7 1.9 1.3 1.1 1.0 1.4 2.1 1.6 1.5 1.6 2.1 2.4 2.2 3.1 4.3 5.9 4.9 4.5 4.7 4.1 3.7 6.2 5.4 3.6
4.4 3.5 8.4 8.2 3.3 1.2 1.2 1.2 2.5 1.6 0.1 1.3 2.3 3.5 3.1 1.8 1.8 1.2 1.3 1.0 1.0 0.4 0.3 0.3 0.7 1.9 6.2 9.8 2.1 nan 4.2 3.7 3.8 3.8 2.5 4.0 6.0 4.8
1.5 3.0 5.0 4.2 1.5 1.2 1.2 1.4 1.7 2.9 3.3 2.3 3.8 5.7 6.7 4.0 3.5 2.3 1.7 2.9 1.2 0.4 0.3 0.1 0.2 0.5 2.5 7.7 10.3 4.3 nan 3.4 3.2 3.7 3.3 2.8 3.5 nan
1.6 1.6 3.3 2.6 1.9 1.3 6.1 7.4 9.9 8.6 7.9 11.4 5.6 6.0 14.3 3.1 3.8 2.9 3.4 2.8 2.1 0.7 0.8 0.5 0.3 0.2 0.3 0.9 12.3 4.2 1.7 nan 0.6 1.5 1.8 3.2 3.2 2.5
3.9 2.5 2.4 2.3 4.1 3.7 9.2 14.0 12.1 11.3 8.0 5.4 12.3 17.7 15.4 6.2 6.1 5.1 5.9 5.7 1.8 1.7 0.9 0.4 0.2 0.2 0.4 1.0 1.7 5.7 1.7 1.0 nan nan nan nan 5.9 9.5
7.4 3.3 5.3 6.9 8.6 8.6 3.2 8.5 3.1 6.1 6.3 6.4 5.8 6.4 29.1 8.2 4.1 4.3 5.2 3.9 2.2 2.1 1.2 1.3 0.5 0.4 0.5 0.5 1.3 3.1 1.2 3.3 0.8 1.1 1.4 nan nan nan

GFSNE_prec_sndepth_165.txt.gz
Snowfall_Accumulation
0.0 0.0 0.0 0.0 0.0 0.0 0.0 0.0 0.1 0.0 0.0 0.0 0.0 0.0 0.0 0.0 0.0 0.0 0.0 nan nan nan nan nan nan nan nan nan nan nan nan nan nan nan nan nan nan nan
0.0 0.0 0.0 0.0 0.0 0.0 0.0 0.0 0.0 0.0 0.1 0.0 0.0 0.0 0.0 0.0 0.0 0.0 0.0 nan nan nan nan nan nan nan nan nan nan nan nan nan nan nan nan nan nan nan
0.0 0.0 0.0 0.0 0.0 0.0 0.0 0.0 0.0 0.0 0.0 0.0 0.0 0.0 0.0 0.0 0.0 0.0 0.0 0.0 0.0 nan nan nan nan nan nan nan nan nan nan nan nan nan nan nan nan nan
0.0 0.0 0.0 0.0 0.0 0.0 0.0 0.0 0.0 0.0 0.0 0.0 0.0 0.0 0.0 0.0 0.0 0.0 0.0 0.0 0.0 nan nan nan nan nan nan nan nan nan nan nan nan nan nan nan nan nan
0.0 0.0 0.0 0.0 0.0 0.0 0.0 0.0 0.0 0.0 0.0 0.1 0.0 0.0 0.0 0.0 0.0 0.0 0.0 0.0 0.0 nan nan nan nan nan nan nan nan nan nan nan nan nan nan nan nan nan
0.0 0.0 0.0 0.1 0.2 0.1 0.0 0.0 0.0 0.0 0.0 0.0 0.0 0.0 0.0 0.0 0.0 0.0 0.0 0.0 0.0 0.0 nan nan nan nan nan nan nan nan nan nan nan nan nan nan nan nan
0.0 0.0 0.1 nan nan nan 0.4 0.2 0.1 0.1 0.0 0.0 0.0 0.0 0.0 0.0 0.1 0.0 0.0 0.0 0.7 0.3 0.3 0.2 0.1 0.0 0.1 nan nan nan nan nan nan nan nan nan nan nan
0.1 0.1 0.1 0.1 0.1 nan nan nan nan 1.6 0.3 0.6 0.5 0.4 0.1 0.3 0.1 0.3 0.2 0.1 0.4 0.1 0.6 0.8 0.5 0.4 0.2 0.2 nan nan nan nan nan nan nan nan nan nan
1.0 0.6 0.4 0.8 nan 0.4 nan nan nan nan nan 0.9 1.0 2.1 0.8 1.4 0.4 0.1 0.2 0.8 0.9 1.0 0.8 2.3 1.0 2.7 0.7 0.1 nan nan nan nan nan nan nan nan nan nan
5.2 5.1 3.6 3.0 3.6 2.4 2.4 3.1 4.4 3.9 4.9 2.7 2.7 4.2 2.9 1.1 0.7 0.5 0.5 0.6 1.4 2.2 1.3 5.0 3.3 5.2 2.2 0.6 nan nan nan nan nan nan nan nan nan nan
6.4 6.6 6.9 6.6 nan nan 5.3 6.4 8.3 10.9 nan nan nan nan nan nan nan 0.2 0.7 0.6 3.8 6.7 5.9 8.1 7.8 8.1 5.8 4.1 1.6 nan nan nan nan nan nan nan nan nan
6.6 5.8 nan 8.1 nan nan 6.1 7.8 11.6 17.8 13.2 10.1 8.7 7.7 nan nan nan 4.4 2.2 2.5 4.9 6.8 6.1 8.3 6.2 6.5 8.3 3.5 3.6 2.9 1.7 nan nan nan nan nan nan 0.7
10.4 10.9 10.3 nan nan nan nan 7.9 15.4 13.4 9.8 12.9 11.9 11.7 10.2 9.7 10.3 9.6 8.7 7.7 6.4 9.2 9.4 6.4 7.0 5.4 5.6 6.9 4.5 4.7 3.6 3.4 1.9 1.3 nan nan nan 0.6
11.1 12.2 16.0 nan nan nan 7.4 nan nan 4.5 12.1 11.9 10.6 10.9 10.1 10.2 11.4 9.9 10.0 8.6 8.9 10.4 7.3 3.5 7.7 5.8 6.4 7.3 7.8 5.9 5.0 4.1 3.2 2.9 2.2 nan nan nan
13.2 16.9 nan nan nan 1.8 nan nan 4.0 11.4 13.5 15.8 16.3 15.8 12.8 9.3 6.1 5.5 4.0 3.9 4.6 4.9 4.9 5.2 6.5 6.3 6.1 7.2 7.0 5.7 5.4 4.5 3.8 3.4 2.6 2.7 2.7 2.7
2.7 7.2 4.0 6.4 3.5 4.7 4.6 5.7 6.0 7.2 8.4 9.4 8.8 6.8 5.3 5.8 6.7 5.2 6.0 5.9 6.3 6.1 4.3 5.1 5.5 5.0 7.7 5.5 4.5 5.6 4.0 4.2 3.5 3.8 3.7 2.7 1.9 1.8
4.6 6.2 5.9 5.1 5.1 4.3 4.0 4.2 3.4 3.0 4.6 4.9 4.7 3.7 2.7 1.8 1.9 1.2 1.6 2.1 5.2 5.3 6.3 3.0 2.5 3.4 5.8 5.9 8.5 6.0 6.2 5.4 4.3 4.1 3.0 3.7 3.4 2.6
3.3 4.8 8.4 7.7 4.5 2.6 3.0 2.7 2.2 1.8 1.5 1.6 2.4 1.6 1.7 1.8 1.3 1.1 1.0 1.4 2.1 1.6 1.5 1.6 2.0 2.3 2.2 3.1 4.3 5.9 4.9 4.5 4.7 4.1 3.7 6.2 5.4 3.6
4.4 3.5 8.4 8.2 3.3 1.2 1.2 1.2 2.5 1.6 0.1 1.3 2.3 3.5 3.1 1.8 1.8 1.2 1.3 1.0 1.0 0.4 0.3 0.3 0.7 1.8 6.2 9.8 2.1 nan 4.2 3.7 3.8 3.8 2.5 4.0 6.0 4.8
1.5 3.0 5.0 4.2 1.5 1.2 1.2 1.4 1.7 2.9 3.3 2.3 3.8 5.7 6.7 4.0 3.5 2.3 1.7 2.9 1.2 0.4 0.3 0.1 0.2 0.5 2.5 7.7 10.3 4.3 nan 3.4 3.2 3.7 3.3 2.8 3.5 nan
1.6 1.6 3.3 2.6 1.9 1.2 6.1 7.4 9.8 8.6 7.9 11.4 5.6 6.0 14.3 3.1 3.8 2.9 3.4 2.8 2.1 0.7 0.8 0.5 0.3 0.2 0.3 0.9 12.3 4.2 1.7 nan 0.6 1.5 1.8 3.2 3.2 2.5
3.9 2.5 2.4 2.3 4.0 3.7 9.2 14.0 12.1 11.3 8.0 5.4 12.3 17.7 15.4 6.2 6.1 5.1 5.9 5.7 1.8 1.7 0.9 0.4 0.2 0.2 0.4 1.0 1.7 5.7 1.7 1.0 nan nan nan nan 5.9 9.5
7.4 3.3 5.2 6.9 8.6 8.6 3.2 8.5 3.1 6.1 6.3 6.4 5.8 6.4 29.0 8.2 4.1 4.3 5.2 3.9 2.2 2.1 1.2 1.3 0.5 0.3 0.5 0.5 1.3 3.1 1.1 3.3 0.8 1.1 1.4 nan nan nan

GFSNE_prec_sndepth_171.txt.gz
Snowfall_Accumulation
0.0 0.0 0.0 0.0 0.0 0.0 0.0 0.0 0.1 0.0 0.0 0.0 0.0 0.0 0.0 0.0 0.0 0.0 0.0 nan nan nan nan nan nan nan nan nan nan nan nan nan nan nan nan nan nan nan
0.0 0.0 0.0 0.0 0.0 0.0 0.0 0.0 0.0 0.0 0.1 0.0 0.0 0.0 0.0 0.0 0.0 0.0 0.0 nan nan nan nan nan nan nan nan nan nan nan nan nan nan nan nan nan nan nan
0.0 0.0 0.0 0.0 0.0 0.0 0.0 0.0 0.0 0.0 0.0 0.0 0.0 0.0 0.0 0.0 0.0 0.0 0.0 0.0 0.0 nan nan nan nan nan nan nan nan nan nan nan nan nan nan nan nan nan
0.0 0.0 0.0 0.0 0.0 0.0 0.0 0.0 0.0 0.0 0.0 0.0 0.0 0.0 0.0 0.0 0.0 0.0 0.0 0.0 0.0 nan nan nan nan nan nan nan nan nan nan nan nan nan nan nan nan nan
0.0 0.0 0.0 0.0 0.0 0.0 0.0 0.0 0.0 0.0 0.0 0.1 0.0 0.0 0.0 0.0 0.0 0.0 0.0 0.0 0.0 nan nan nan nan nan nan nan nan nan nan nan nan nan nan nan nan nan
0.0 0.0 0.0 0.1 0.2 0.1 0.0 0.0 0.0 0.0 0.0 0.0 0.0 0.0 0.0 0.0 0.0 0.0 0.0 0.0 0.0 0.1 nan nan nan nan nan nan nan nan nan nan nan nan nan nan nan nan
0.0 0.0 0.1 nan nan nan 0.4 0.2 0.1 0.1 0.0 0.0 0.0 0.0 0.0 0.0 0.1 0.0 0.0 0.0 0.7 0.4 0.6 0.4 0.1 0.0 0.1 nan nan nan nan nan nan nan nan nan nan nan
0.1 0.1 0.1 0.1 0.1 nan nan nan nan 1.6 0.3 0.5 0.5 0.4 0.1 0.3 0.1 0.3 0.2 0.1 0.7 0.1 0.7 1.0 0.5 0.4 0.2 0.2 nan nan nan nan nan nan nan nan nan nan
1.0 0.6 0.4 0.8 nan 0.4 nan nan nan nan nan 0.9 1.0 2.1 0.8 1.4 0.4 0.1 0.2 0.9 0.9 1.0 0.9 2.5 1.2 2.7 0.7 0.1 nan nan nan nan nan nan nan nan nan nan
5.2 5.1 3.6 3.0 3.6 2.4 2.4 3.1 4.4 3.9 4.9 2.7 2.7 4.2 2.9 1.1 0.7 0.5 0.5 0.6 1.4 2.2 1.3 5.2 3.5 5.2 2.2 0.6 nan nan nan nan nan nan nan nan nan nan
6.4 6.6 6.9 6.6 nan nan 5.3 6.4 8.3 10.9 nan nan nan nan nan nan nan 0.2 0.7 0.7 3.8 6.7 5.9 8.1 8.0 8.3 5.8 4.1 1.6 nan nan nan nan nan nan nan nan nan
6.6 5.8 nan 8.1 nan nan 6.1 7.8 11.6 17.8 13.2 10.1 8.7 7.7 nan nan nan 4.4 2.2 2.5 4.9 6.8 6.1 8.3 6.2 6.6 8.5 3.5 3.6 2.9 1.7 nan nan nan nan nan nan 0.6
10.4 10.9 10.3 nan nan nan nan 7.9 15.3 13.4 9.8 12.8 11.9 11.7 10.2 9.7 10.3 9.6 8.7 7.7 6.4 9.2 9.4 6.4 7.0 5.4 5.6 6.9 4.5 4.7 3.6 3.3 1.9 1.3 nan nan nan 0.6
11.1 12.2 16.0 nan nan nan 7.4 nan nan 4.5 12.1 11.9 10.6 10.9 10.1 10.2 11.4 9.9 10.0 8.6 8.8 10.3 7.3 3.5 7.7 5.8 6.4 7.3 7.8 5.9 5.0 4.1 3.2 2.9 2.3 nan nan nan
13.2 16.9 nan nan nan 1.8 nan nan 4.0 11.4 13.4 15.8 16.3 15.8 12.8 9.3 6.1 5.6 4.1 4.0 4.6 5.0 4.9 5.2 6.5 6.3 6.1 7.2 7.0 5.7 5.4 4.5 3.8 3.4 2.6 2.8 2.7 2.7
2.7 7.1 4.0 6.4 3.5 4.7 4.6 5.7 5.9 7.2 8.4 9.4 8.8 6.7 5.3 5.8 6.6 5.2 6.0 5.9 6.3 6.1 4.2 5.1 5.5 5.0 7.7 5.5 4.5 5.6 4.0 4.2 3.4 3.8 3.7 2.7 1.9 1.8
4.6 6.2 5.9 5.1 5.1 4.3 4.0 4.1 3.4 3.0 4.6 4.9 4.7 3.7 2.7 1.7 1.9 1.2 1.6 2.1 5.2 5.3 6.3 3.0 2.5 3.4 5.7 5.9 8.5 6.0 6.2 5.4 4.3 4.1 3.0 3.7 3.4 2.6
3.3 4.8 8.4 7.6 4.5 2.6 3.0 2.7 2.2 1.8 1.5 1.5 2.4 1.5 1.7 1.8 1.3 1.1 1.0 1.4 2.1 1.6 1.5 1.6 2.0 2.3 2.2 3.0 4.2 5.9 4.9 4.5 4.7 4.0 3.7 6.2 5.4 3.6
4.3 3.5 8.4 8.2 3.3 1.2 1.2 1.2 2.5 1.6 0.1 1.3 2.3 3.4 3.1 1.8 1.8 1.2 1.3 1.0 1.0 0.4 0.3 0.3 0.7 1.8 6.2 9.8 2.1 nan 4.2 3.7 3.8 3.8 2.5 4.0 6.0 4.8
1.5 3.0 5.0 4.2 1.5 1.2 1.2 1.4 1.7 2.9 3.3 2.3 3.8 5.7 6.7 4.0 3.5 2.3 1.7 2.9 1.2 0.4 0.3 0.1 0.2 0.5 2.5 7.6 10.3 4.3 nan 3.4 3.2 3.7 3.3 2.8 3.5 nan
1.5 1.5 3.3 2.6 1.9 1.2 6.1 7.4 9.8 8.5 7.9 11.4 5.6 6.0 14.2 3.1 3.8 2.9 3.4 2.8 2.1 0.6 0.8 0.5 0.3 0.2 0.3 0.9 12.3 4.2 1.7 nan 0.6 1.5 1.8 3.2 3.2 2.5
3.9 2.5 2.4 2.3 4.0 3.7 9.1 13.9 12.1 11.3 8.0 5.4 12.3 17.6 15.4 6.2 6.1 5.1 5.8 5.7 1.8 1.7 0.8 0.4 0.2 0.2 0.4 1.0 1.7 5.7 1.7 1.0 nan nan nan nan 5.8 9.5
7.4 3.3 5.2 6.9 8.6 8.6 3.2 8.5 3.0 6.1 6.3 6.4 5.8 6.4 28.9 8.2 4.1 4.3 5.2 3.9 2.2 2.0 1.2 1.3 0.5 0.3 0.5 0.5 1.3 3.1 1.1 3.3 0.8 1.1 1.4 nan nan nan